VARKAUS current weather conditions

sailwx.info

Wind from 120 at 14 knots

Air temperature -0.0° C
Visibility: greater than 0.6 NM
Dewpoint -0.0° C
Present weather: Rain snow.

Last reported at 2015-Mar-31 05:50 UTC.
Time now 2015-Mar-31 06:45 UTC

Location: N 62°10' E 027°52'.
View on Google Maps.

See reports from other nearby stations

  
Tides and Currents Weather Stations Pressure Air Temp Water Temp Dewpoint Dewpoint Depression Visibility Wind Speed Wind Dir Waves Ship Positions
date/time (UTC)wind fromknots sea level pressurealtimeterstation pressurevisibilityair tempwater tempwave heightnotes
2015-Mar-31 05:50 120 14 0.6-0.0 Rain snow.
2015-Mar-31 05:20 120 14 0.3-0.0 Rain snow.
2015-Mar-31 04:50 120 15 1.7-0.0 Light rain showers.
2015-Mar-31 04:20 120 16 3.8 1.0
2015-Mar-31 03:50 130 15 2.7 1.0 Light rain showers.
2015-Mar-31 03:20 130 14 5.4 1.0 Light snow grains.
2015-Mar-31 02:50 120 12 1.6-0.0 Light rain showers.
2015-Mar-31 02:20 130 13 2.1-0.0 Light rain showers. Mist.
2015-Mar-31 01:50 130 13 1.5-0.0 Light showers. Mist.
2015-Mar-31 01:20 130 15 2.6-0.0 Light showers.
2015-Mar-31 00:50 130 14 3.8-0.0 Light rain snow.
2015-Mar-31 00:20 130 14 1.2-0.0 Light snow.
2015-Mar-30 23:50 130 15 2.7-0.0 Light rain snow.
2015-Mar-30 23:20 130 14 2.5-0.0 Light rain snow.
2015-Mar-30 22:50 130 14 5.4-0.0 Light rain snow.
2015-Mar-30 22:20 130 12 4.3-0.0 Light rain snow.
2015-Mar-30 21:50 130 14 2.3-0.0 Light rain snow.
2015-Mar-30 21:20 130 12 1.7-0.0 Light rain snow.
2015-Mar-30 20:50 130 13 2.3-0.0 Light rain snow.
2015-Mar-30 20:20 130 13 2.1-0.0 Light rain snow.
2015-Mar-30 19:50 120 12 3.2-0.0 Light rain snow.
2015-Mar-30 19:20 120 12 1.5-0.0 Light snow.
2015-Mar-30 18:50 130 12 1.0-0.0 Light rain snow.
2015-Mar-30 18:20 120 12 1.4-0.0 Rain snow.
2015-Mar-30 17:50 120 13 2.5-0.0 Light rain snow.
2015-Mar-30 17:20 120 13 2.1-0.0 Light rain snow.
2015-Mar-30 16:50 130 14 5.4-0.0 Light rain.
2015-Mar-30 16:20 120 14 5.4 1.0 Light rain.
2015-Mar-30 15:50 120 13 5.4-0.0 Light snow grains.
2015-Mar-30 15:20 130 14 5.4 1.0
2015-Mar-30 14:50 130 13 5.4 1.0
2015-Mar-30 14:20 130 13 5.4 1.0
2015-Mar-30 13:50 140 13 5.4 1.0
2015-Mar-30 13:20 140 14 5.4 1.0
2015-Mar-30 12:50 130 13 5.4 1.0
2015-Mar-30 12:20 130 12 5.4-0.0
2015-Mar-30 11:50 130 13 5.4-0.0
2015-Mar-30 11:20 130 12 5.4-0.0
2015-Mar-30 10:50 130 14 5.4-0.0
2015-Mar-30 10:20 130 13 5.4-0.0
2015-Mar-30 09:50 140 12 5.4-0.0
2015-Mar-30 09:20 140 14 5.4-0.0 Light rain snow.
2015-Mar-30 08:50 140 11 3.8-0.0 Light rain snow.
2015-Mar-30 08:20 140 12 4.3-0.0 Light rain snow.
2015-Mar-30 07:50 140 13 5.4-0.0 Light snow.
2015-Mar-30 07:20 140 14 5.4-0.0
2015-Mar-30 06:50 150 12 5.4-0.0 Light snow.
2015-Mar-30 06:20 140 12 5.4-0.0 Light rain snow.
2015-Mar-30 05:50 150 12 4.3-0.0 Light rain snow.
2015-Mar-30 05:20 140 12 3.2-0.0 Light rain snow.
2015-Mar-30 04:50 150 12 gusting 23 5.4-0.0 Light precipitation.
2015-Mar-30 04:20 150 13 5.4-0.0
2015-Mar-30 03:50 150 12 5.4-0.0
2015-Mar-30 03:20 150 12 5.4-0.0
2015-Mar-30 02:50 150 12 5.4 1.0
2015-Mar-30 02:20 150 11 5.4 1.0 Light snow grains.
2015-Mar-30 01:50 150 11 5.4 1.0 Light rain.
2015-Mar-30 01:20 150 11 4.9 1.0 Light snow grains.
2015-Mar-30 00:50 150 11 5.4 1.0
2015-Mar-30 00:20 150 11 5.4 1.0
2015-Mar-29 23:50 150 9 5.4 1.0 Light rain.
2015-Mar-29 23:20 140 11 5.4 1.0 Light rain.
2015-Mar-29 22:50 140 10 3.2 1.0 Light rain.
2015-Mar-29 22:20 140 11 4.9 1.0 Light rain.
2015-Mar-29 21:50 150 10 4.3 1.0 Light rain.
2015-Mar-29 21:20 140 11 3.8 1.0 Light rain.
2015-Mar-29 20:50 140 11 3.8 1.0 Light rain.
2015-Mar-29 20:20 140 11 4.3 1.0 Light rain.
2015-Mar-29 19:50 140 10 3.8 1.0 Light rain.
2015-Mar-29 19:20 140 11 3.2 1.0 Light rain.
2015-Mar-29 18:50 140 10 3.8 1.0 Light rain.
2015-Mar-29 18:20 140 10 3.2 1.0 Light rain.
2015-Mar-29 17:50 140 10 3.8 1.0 Light rain.
2015-Mar-29 17:20 140 11 3.8 1.0
2015-Mar-29 16:50 150 12 3.2 1.0 Light rain.
2015-Mar-29 16:20 150 11 2.1 1.0 Light rain. Mist.
2015-Mar-29 15:50 140 9 2.4 2.0 Light rain. Mist.
2015-Mar-29 15:20 140 10 2.7 2.0 Light precipitation.
2015-Mar-29 14:50 140 9 2.7 2.0
2015-Mar-29 14:20 140 10 1.9 2.0 Mist.
2015-Mar-29 13:50 130 9 5.4 3.0
2015-Mar-29 13:20 150 9 5.4 4.0
2015-Mar-29 12:50 140 8 5.4 4.0
2015-Mar-29 12:20 140 9 5.4 4.0
2015-Mar-29 11:50 160 9 5.4 4.0
2015-Mar-29 11:20 150 8 5.4 4.0
2015-Mar-29 10:50 160 7 5.4 3.0
2015-Mar-29 10:20 140 6 5.4 3.0
2015-Mar-29 09:50 160 5 5.4 2.0
2015-Mar-29 09:20 180 3 5.4 2.0
2015-Mar-29 08:50 200 5 1.5 1.0 Rain showers. Mist.
2015-Mar-29 08:20 190 3 5.4 2.0 Light precipitation.
2015-Mar-29 07:50 180 4 5.4 1.0
2015-Mar-29 07:20 170 6 5.4 2.0
2015-Mar-29 06:50 170 5 5.4 1.0
2015-Mar-29 06:20 210 1 1.2-0.0 Light rain.